Date String (YYYY-MM-DD hh:mm:ss) UTC,Instrument flags,absolute air pressure of the measurement (hPa),sample flow rate (lpm),inlet stack bypass flow (lpm),air temperature of the measurement (°C),ambient temperature measured by the external sensor (°C),aerosol sample conditioner tube jacket temperature (°C),OPC LED temperature (°C),internal box temperature (°C),relative humidity of the measurement (%),span deviation,mass concentration of particles derived from Lorenz-Mie calculation of OPC scattering (μg/m³),mass concentration of particles derived from Lorenz-Mie calculation of OPC scattering (μg/m³),mass concentration of particles derived from Lorenz-Mie calculation of OPC scattering (μg/m³)
DateTimeUTC,F1_M11,P_M11,Q1_M11,Q2_M11,T1_M11,T2_M11,T3_M11,T4_M11,T5_M11,U1_M11,ZSPAN_M11,X0_M11,X2_M11,X1_M11
2024-05-19 07:00:00,SystemResetWarning,0826.8,4.99,000.00,025.3,024.8,000.0,033.3,027.2,022.8,0000.0,0004.57,0002.53,0001.74
2024-05-19 07:01:00,SystemResetWarning,0826.8,5.01,000.00,025.4,024.8,000.0,033.3,027.2,022.7,0000.0,0004.64,0002.58,0001.76
2024-05-19 07:02:00,SystemResetWarning,0826.9,4.99,000.00,025.3,023.6,000.0,033.4,026.5,022.8,0000.0,0004.71,0002.58,0001.77
2024-05-19 07:03:00,SystemResetWarning,0826.9,5.00,000.00,024.8,022.0,000.0,033.4,025.6,023.5,0000.0,0004.70,0002.58,0001.77
2024-05-19 07:04:00,SystemResetWarning,0826.9,5.02,000.00,024.6,022.0,000.0,033.4,025.5,023.8,0000.0,0004.72,0002.61,0001.78
2024-05-19 07:05:00,SystemResetWarning,0827.0,5.00,000.00,024.5,022.3,000.0,033.2,025.6,024.0,0000.0,0004.86,0002.64,0001.79
2024-05-19 07:06:00,SystemResetWarning,0827.1,4.99,000.00,024.5,022.6,000.0,033.1,025.9,024.1,0000.0,0005.16,0002.69,0001.79
2024-05-19 07:07:00,SystemResetWarning,0827.1,5.00,000.00,024.6,022.9,000.0,033.1,026.1,024.0,0000.0,0005.60,0002.72,0001.78
2024-05-19 07:08:00,SystemResetWarning,0827.1,5.02,000.00,024.6,023.2,000.0,033.0,026.2,023.8,0000.0,0005.90,0002.76,0001.76
2024-05-19 07:09:00,SystemResetWarning,0827.1,5.00,000.00,024.6,023.4,000.0,033.0,026.3,023.8,0000.0,0005.94,0002.70,0001.75
2024-05-19 07:10:00,SystemResetWarning,0827.1,5.00,000.00,024.7,023.6,000.0,033.0,026.4,023.9,0000.0,0005.85,0002.67,0001.74
2024-05-19 07:11:00,SystemResetWarning,0827.2,5.00,000.00,024.7,023.8,000.0,033.0,026.5,024.0,0000.0,0005.88,0002.65,0001.73
2024-05-19 07:12:00,SystemResetWarning,0827.2,4.99,000.00,024.7,023.9,000.0,033.0,026.5,024.2,0000.0,0005.83,0002.65,0001.73
2024-05-19 07:13:00,SystemResetWarning,0827.2,5.00,000.00,024.8,024.0,000.0,033.0,026.6,024.0,0000.0,0005.66,0002.62,0001.72
2024-05-19 07:14:00,SystemResetWarning,0827.2,4.99,000.00,024.8,024.2,000.0,033.0,026.7,023.8,0000.0,0006.24,0002.57,0001.70
2024-05-19 07:15:00,SystemResetWarning,0827.1,5.00,000.00,024.9,024.2,000.0,033.0,026.7,023.7,0000.0,0007.04,0002.53,0001.68
2024-05-19 07:16:00,SystemResetWarning,0827.2,5.00,000.00,024.9,024.3,000.0,033.0,026.8,023.6,0000.0,0007.17,0002.53,0001.67
2024-05-19 07:17:00,SystemResetWarning,0827.2,5.00,000.00,025.0,024.4,000.0,033.1,026.8,023.7,0000.0,0007.44,0002.51,0001.66
2024-05-19 07:18:00,SystemResetWarning,0827.3,5.00,000.00,025.0,024.5,000.0,033.1,026.9,023.7,0000.0,0007.58,0002.56,0001.67
2024-05-19 07:19:00,SystemResetWarning,0827.3,5.00,000.00,025.1,024.5,000.0,033.1,026.9,023.5,0000.0,0007.56,0002.53,0001.68
2024-05-19 07:20:00,SystemResetWarning,0827.2,5.00,000.00,025.1,024.6,000.0,033.1,027.0,023.3,0000.0,0007.30,0002.54,0001.68
2024-05-19 07:21:00,SystemResetWarning,0827.2,5.00,000.00,025.1,024.6,000.0,033.2,027.0,023.3,0000.0,0007.28,0002.54,0001.68
2024-05-19 07:22:00,SystemResetWarning,0827.2,5.00,000.00,025.2,024.7,000.0,033.2,027.0,023.1,0000.0,0007.22,0002.50,0001.67
2024-05-19 07:23:00,SystemResetWarning,0827.2,5.00,000.00,025.2,024.7,000.0,033.2,027.1,022.9,0000.0,0007.19,0002.48,0001.67
2024-05-19 07:24:00,SystemResetWarning,0827.1,5.00,000.00,025.3,024.7,000.0,033.3,027.1,022.7,0000.0,0007.23,0002.48,0001.68
2024-05-19 07:25:00,SystemResetWarning,0827.1,5.00,000.00,025.3,024.8,000.0,033.3,027.1,022.6,0000.0,0006.76,0002.47,0001.69
2024-05-19 07:26:00,SystemResetWarning,0827.0,5.00,000.00,025.3,024.8,000.0,033.3,027.1,022.5,0000.0,0005.75,0002.50,0001.68
2024-05-19 07:27:00,SystemResetWarning,0827.0,5.00,000.00,025.4,024.8,000.0,033.4,027.2,022.6,0000.0,0005.55,0002.45,0001.67
2024-05-19 07:28:00,SystemResetWarning,0827.1,5.00,000.00,025.4,024.7,000.0,033.4,027.1,022.6,0000.0,0004.90,0002.44,0001.69
2024-05-19 07:29:00,SystemResetWarning,0827.1,4.99,000.00,025.2,022.8,000.0,033.5,026.2,022.7,0000.0,0004.72,0002.38,0001.67
2024-05-19 07:30:00,SystemResetWarning,0827.1,5.02,000.00,024.8,021.9,000.0,033.5,025.5,023.2,0000.0,0004.71,0002.40,0001.66
2024-05-19 07:31:00,SystemResetWarning,0827.1,5.00,000.00,024.6,022.1,000.0,033.4,025.5,023.4,0000.0,0004.85,0002.41,0001.66
2024-05-19 07:32:00,SystemResetWarning,0827.1,4.98,000.00,024.6,022.4,000.0,033.3,025.8,023.5,0000.0,0005.21,0002.42,0001.67
2024-05-19 07:33:00,SystemResetWarning,0827.1,5.00,000.00,024.6,022.8,000.0,033.2,026.0,023.5,0000.0,0005.14,0002.43,0001.66
2024-05-19 07:34:00,SystemResetWarning,0827.1,5.01,000.00,024.6,023.1,000.0,033.1,026.2,023.7,0000.0,0005.18,0002.44,0001.65
2024-05-19 07:35:00,SystemResetWarning,0827.1,5.00,000.00,024.6,023.3,000.0,033.1,026.3,023.5,0000.0,0005.17,0002.43,0001.64
2024-05-19 07:36:00,SystemResetWarning,0827.1,4.99,000.00,024.7,023.5,000.0,033.0,026.4,023.3,0000.0,0005.36,0002.49,0001.65
2024-05-19 07:37:00,SystemResetWarning,0827.1,4.99,000.00,024.7,023.7,000.0,033.0,026.4,023.0,0000.0,0006.15,0002.48,0001.67
2024-05-19 07:38:00,SystemResetWarning,0827.0,5.00,000.00,024.8,023.9,000.0,033.0,026.6,022.9,0000.0,0006.36,0002.51,0001.69
2024-05-19 07:39:00,SystemResetWarning,0826.9,5.00,000.00,024.8,024.0,000.0,033.0,026.6,022.6,0000.0,0006.77,0002.52,0001.68
2024-05-19 07:40:00,SystemResetWarning,0826.9,5.01,000.00,024.9,024.1,000.0,033.0,026.7,022.5,0000.0,0006.66,0002.56,0001.70
2024-05-19 07:41:00,SystemResetWarning,0826.9,5.00,000.00,024.9,024.2,000.0,033.0,026.7,022.7,0000.0,0006.13,0002.54,0001.71
2024-05-19 07:42:00,SystemResetWarning,0827.0,5.00,000.00,025.0,024.3,000.0,033.1,026.8,022.4,0000.0,0006.10,0002.53,0001.72
2024-05-19 07:43:00,SystemResetWarning,0826.9,4.99,000.00,025.0,024.4,000.0,033.1,026.8,022.2,0000.0,0005.75,0002.49,0001.71
2024-05-19 07:44:00,SystemResetWarning,0826.8,5.00,000.00,025.0,024.5,000.0,033.1,026.9,021.9,0000.0,0005.77,0002.48,0001.71
2024-05-19 07:45:00,SystemResetWarning,0826.8,5.01,000.00,025.1,024.5,000.0,033.1,026.9,021.9,0000.0,0006.22,0002.51,0001.72
2024-05-19 07:46:00,SystemResetWarning,0826.7,5.01,000.00,025.1,024.6,000.0,033.1,027.0,021.8,0000.0,0006.64,0002.51,0001.71
2024-05-19 07:47:00,SystemResetWarning,0826.6,5.00,000.00,025.2,024.6,000.0,033.2,027.0,021.8,0000.0,0006.52,0002.47,0001.70
2024-05-19 07:48:00,SystemResetWarning,0826.6,4.98,000.00,025.2,024.7,000.0,033.2,027.1,021.8,0000.0,0005.82,0002.44,0001.69
2024-05-19 07:49:00,SystemResetWarning,0826.6,5.00,000.00,025.3,024.7,000.0,033.2,027.1,021.8,0000.0,0005.68,0002.41,0001.68
2024-05-19 07:50:00,SystemResetWarning,0826.5,5.01,000.00,025.3,024.8,000.0,033.3,027.1,021.6,0000.0,0005.19,0002.40,0001.67
2024-05-19 07:51:00,SystemResetWarning,0826.4,5.01,000.00,025.3,024.8,000.0,033.3,027.2,021.8,0000.0,0005.13,0002.38,0001.67
2024-05-19 07:52:00,SystemResetWarning,0826.4,5.01,000.00,025.4,024.7,000.0,033.3,027.1,021.9,0000.0,0005.07,0002.35,0001.66
2024-05-19 07:53:00,SystemResetWarning,0826.4,4.98,000.00,025.1,022.8,000.0,033.4,026.1,022.2,0000.0,0004.93,0002.32,0001.67
2024-05-19 07:54:00,SystemResetWarning,0826.3,5.02,000.00,024.7,021.8,000.0,033.4,025.5,022.8,0000.0,0004.86,0002.36,0001.68
2024-05-19 07:55:00,SystemResetWarning,0826.4,4.99,000.00,024.5,022.0,000.0,033.3,025.5,023.2,0000.0,0004.91,0002.41,0001.69
2024-05-19 07:56:00,SystemResetWarning,0826.4,5.00,000.00,024.5,022.4,000.0,033.2,025.7,023.2,0000.0,0004.47,0002.42,0001.71
2024-05-19 07:57:00,SystemResetWarning,0826.4,4.99,000.00,024.5,022.7,000.0,033.1,026.0,023.1,0000.0,0003.97,0002.39,0001.72
2024-05-19 07:58:00,SystemResetWarning,0826.4,4.99,000.00,024.5,023.0,000.0,033.0,026.1,023.2,0000.0,0004.16,0002.46,0001.73
2024-05-19 07:59:00,SystemResetWarning,0826.4,5.00,000.00,024.6,023.3,000.0,033.0,026.2,023.1,0000.0,0004.11,0002.47,0001.74
